RH
33 31 29 27 26 26 27 27 26 26 26 26 24 24 24 23 20 17 14 13 12 11 10 10 9 7 6 6 6 6 7 7 10 15 25 18 12 10 8 6 5 8 17 21 23
33 32 30 30 30 30 29 29 29 30 29 28 27 26 24 19 15 14 13 12 11 10 7 4 4 4 4 6 7 8 8 10 15 24 48 44 25 17 18 14 8 8 12 18 26
35 35 36 34 33 32 32 32 32 30 29 28 26 22 20 15 14 14 13 12 8 5 4 4 3 3 4 4 6 12 11 13 30 59 96 90 64 39 24 17 27 30 17 14 26
41 40 39 38 36 35 33 32 32 30 29 27 24 21 15 14 14 13 12 7 5 5 4 5 7 8 10 12 11 10 8 11 17 20 47 90 96 75 50 27 28 31 44 24 23
44 43 42 40 38 37 37 36 34 31 30 26 24 17 16 14 13 11 7 6 6 6 8 9 12 16 20 22 30 29 31 24 18 12 14 19 26 77 78 52 44 38 42 37 42
46 46 45 44 44 42 40 38 36 34 30 28 20 18 16 14 13 9 7 6 7 10 14 18 22 25 28 29 36 41 42 35 36 34 30 27 20 28 36 79 77 62 48 42 43
49 47 45 46 47 45 42 40 38 35 31 25 21 18 16 14 11 9 8 9 12 16 19 27 30 33 38 39 46 48 42 42 34 38 47 61 56 29 22 28 78 77 64 50 40
50 47 46 46 45 45 42 41 39 35 30 24 23 18 14 14 10 10 12 14 21 25 30 35 40 43 47 55 53 60 66 50 35 51 54 82 72 33 24 21 21 74 77 60 73
51 48 48 48 46 46 44 41 39 36 28 27 22 17 16 14 13 10 14 15 22 27 32 34 37 46 55 63 91 92 89 80 62 64 65 81 74 43 40 35 22 75 86 95 99
57 52 50 48 47 46 44 43 40 34 32 26 22 18 16 13 12 13 17 19 23 28 37 38 38 49 67 98 97 94 97 100 84 69 82 87 69 47 46 54 52 40 93 86 99
59 55 54 52 50 47 46 46 40 32 33 26 20 12 13 15 11 16 14 18 25 38 43 44 44 64 76 82 97 100 100 92 66 73 98 75 68 57 60 55 93 42 94 95 87
60 61 58 58 56 52 51 47 44 38 26 26 15 14 17 11 12 14 17 17 23 35 43 47 57 73 83 95 100 97 97 87 77 80 90 81 75 65 62 39 96 55 94 95 99
57 61 63 61 56 55 51 48 46 38 26 22 15 16 18 12 28 23 24 26 28 40 51 56 67 74 94 94 99 92 95 86 94 95 91 95 90 64 59 57 90 86 87 97 96
61 66 67 63 60 57 53 49 47 32 30 18 18 20 17 16 31 33 29 30 40 42 53 57 72 83 96 95 100 100 83 98 95 98 96 96 93 71 76 74 90 79 92 96 99
69 70 70 70 64 60 56 53 40 28 38 21 17 18 20 22 27 31 30 31 42 46 60 59 65 77 96 99 91 91 97 95 98 97 98 97 92 100 96 96 90 97 92 98 99
80 74 70 68 63 59 56 48 34 20 26 15 14 16 16 21 25 24 26 31 37 46 52 55 73 79 88 85 91 92 89 87 97 99 90 97 94 96 97 98 90 87 98 97 98
82 72 73 69 63 58 52 42 28 27 20 16 14 21 24 25 25 25 27 31 44 53 61 50 66 81 81 79 90 94 83 86 82 84 94 97 82 98 96 98 100 81 91 93 98
77 75 74 68 65 60 50 40 33 22 13 12 18 24 25 31 27 25 29 35 51 59 82 89 62 70 85 92 99 92 98 96 95 94 91 91 98 96 98 98 95 85 84 89 92
85 80 72 66 66 62 53 43 27 17 14 15 21 25 28 31 30 32 39 51 56 64 80 96 70 64 91 87 93 90 95 94 98 97 80 98 95 96 99 86 79 71 73 93 94
88 94 77 75 72 61 61 48 31 18 12 18 24 35 37 34 32 32 39 44 54 66 69 98 91 66 82 80 88 91 95 92 94 93 95 95 98 98 99 100 98 100 93 98 97
99 96 91 84 75 66 72 58 40 17 14 18 24 35 39 41 36 38 47 52 60 55 60 87 100 56 80 90 99 94 95 95 96 96 94 92 96 96 100 100 100 100 88 78 97
99 96 98 94 77 78 80 66 42 22 15 19 28 33 37 44 37 45 59 65 69 66 70 76 93 90 72 96 80 96 100 96 96 94 93 94 95 97 96 100 100 100 100 100 99
97 99 99 92 85 86 84 72 52 26 16 19 27 34 41 48 53 54 60 68 71 65 72 69 88 92 66 76 70 84 96 100 97 100 90 84 95 89 75 84 99 99 99 99 98
100 100 98 98 93 90 89 73 57 34 20 19 25 34 43 41 50 57 65 67 66 62 71 69 76 98 95 96 98 90 95 99 90 88 88 96 99 97 73 76 82 87 98 98 99
98 95 100 99 99 92 90 83 62 41 25 17 23 30 40 43 44 55 60 56 61 58 68 68 71 80 75 93 98 94 92 95 90 90 89 94 97 96 93 83 76 73 76 81 91
62 89 100 95 100 99 92 83 69 48 31 20 16 25 36 39 46 56 59 61 54 65 64 77 85 71 59 92 82 79 84 89 95 90 90 98 93 91 88 92 90 91 93 93 92
31 97 99 99 100 99 93 89 76 60 38 24 21 19 24 36 41 53 58 58 60 62 56 70 87 83 70 82 68 76 76 67 95 91 85 83 93 94 93 90 87 86 86 91 97
Wind_Speed
17 17 17 18 19 19 20 20 20 21 22 23 25 25 26 26 26 26 27 26 18 20 23 26 26 26 24 26 28 29 33 42 41 38 30 32 30 32 35 35 32 37 35 29 21
17 18 18 19 20 21 22 22 23 23 24 25 26 26 28 28 28 29 25 21 24 22 23 25 27 27 28 26 26 28 36 38 39 39 35 34 34 35 29 26 32 35 36 33 29
19 20 21 21 22 23 24 25 26 25 25 26 26 26 27 28 29 21 25 23 25 28 31 30 28 27 23 21 21 27 35 36 36 30 22 23 25 37 37 38 28 30 34 35 33
20 21 21 23 24 26 27 27 27 27 27 27 27 28 27 27 15 20 21 24 29 29 28 28 26 23 20 15 14 21 22 28 35 35 40 39 31 33 36 43 34 37 32 35 38
19 21 22 24 26 27 28 28 27 27 27 27 28 28 27 23 18 17 22 27 27 25 26 25 20 20 17 17 19 21 21 20 23 28 33 37 45 47 38 39 34 36 35 37 35
19 21 22 24 27 28 30 28 28 29 29 29 30 29 24 19 19 23 26 25 26 24 20 20 21 20 22 21 24 25 24 23 24 25 29 34 36 35 54 36 32 35 35 33 36
19 21 22 25 28 30 32 30 30 31 31 31 32 27 21 17 23 28 25 27 27 25 20 20 22 22 24 25 20 26 29 30 28 26 31 28 34 39 35 51 41 31 26 27 38
21 22 24 27 29 33 32 31 31 32 31 32 29 24 16 21 29 26 22 19 23 22 23 24 24 23 24 23 24 26 27 29 23 23 22 16 32 30 27 32 53 37 22 30 34
22 24 26 28 30 33 33 32 32 34 30 31 26 20 13 25 22 25 25 23 17 19 21 20 18 17 17 19 21 16 21 26 32 28 22 15 27 27 23 27 43 45 29 27 33
24 25 28 30 30 30 30 33 34 32 31 26 17 12 20 28 26 17 20 23 19 17 19 17 14 13 11 13 13 16 22 27 32 26 27 28 33 31 26 23 25 48 33 28 34
28 29 30 30 30 29 27 31 31 31 32 22 14 15 23 24 26 18 20 18 19 18 16 16 13 8 15 19 22 23 26 30 30 25 29 29 30 25 26 23 20 34 31 27 34
30 32 32 31 29 30 31 30 29 27 25 15 15 24 27 31 23 19 19 20 19 17 18 14 5 15 21 24 24 23 27 33 31 22 21 25 27 18 20 23 19 32 25 28 29
31 31 29 28 29 30 32 31 30 30 16 7 19 26 29 27 18 26 26 25 22 16 17 13 11 15 18 19 23 15 19 22 26 27 25 23 27 19 11 18 21 34 25 26 31
30 25 26 28 30 31 30 30 30 27 4 13 19 21 23 23 17 24 26 25 23 19 12 8 14 20 20 15 15 12 11 19 26 26 9 10 4 5 11 13 16 26 24 26 29
28 25 25 29 30 30 31 31 30 18 4 20 20 23 23 23 19 21 25 25 18 16 9 12 10 17 19 21 15 12 23 21 20 20 17 8 2 5 9 8 20 22 25 22 24
25 25 25 25 27 28 29 28 21 6 4 14 20 21 14 18 18 21 23 25 17 12 19 13 7 20 20 23 11 18 23 15 12 11 3 15 3 11 5 8 22 22 21 19 21
24 23 24 26 25 27 27 25 7 7 19 14 22 20 17 19 16 23 25 26 30 24 27 16 5 21 23 25 11 18 22 6 3 4 2 14 11 11 5 12 18 21 13 8 8
20 21 26 24 25 26 25 21 6 13 13 20 19 13 13 20 15 21 23 22 26 27 19 16 9 19 23 20 19 16 14 4 4 4 4 10 7 9 8 10 16 16 14 12 10
22 23 22 23 25 24 23 10 10 16 18 18 16 9 12 17 18 18 20 15 23 28 19 12 11 13 17 15 19 15 18 9 6 4 2 5 6 12 7 11 12 12 11 12 15
21 24 23 25 26 20 22 14 16 17 17 14 11 8 13 18 17 17 19 14 21 24 19 8 15 11 14 15 15 16 18 6 8 4 3 3 6 10 6 9 14 14 11 9 13
26 28 25 26 27 19 22 17 17 16 15 12 11 8 12 17 20 15 16 15 23 25 20 13 9 15 9 13 18 20 23 11 7 4 2 2 3 11 7 9 13 16 12 8 9
22 21 23 27 20 22 21 18 15 15 14 10 10 11 11 15 17 12 15 17 22 26 19 14 8 20 13 4 16 16 22 20 5 8 6 1 3 11 7 7 11 14 17 15 13
19 23 23 22 13 22 20 17 15 15 14 12 10 11 12 13 9 15 17 21 22 20 12 16 8 13 4 2 11 15 20 17 10 5 7 2 3 8 4 5 7 10 13 14 14
21 19 24 16 22 22 19 14 15 14 13 10 11 10 11 14 13 12 17 19 20 12 11 14 9 7 8 15 17 16 14 16 11 4 5 7 7 7 5 5 6 7 9 11 12
18 21 16 21 22 20 18 16 14 14 12 13 10 10 13 11 16 14 22 23 15 9 13 12 7 10 13 11 10 12 12 11 13 6 5 6 9 10 8 6 3 2 3 7 11
19 19 18 20 20 20 18 17 14 13 15 13 12 12 13 14 15 20 23 20 8 11 12 10 6 17 13 6 11 9 8 9 6 5 6 7 7 8 9 9 7 5 3 2 4
20 15 15 20 20 19 17 16 15 15 11 14 14 14 14 13 16 18 20 15 13 10 11 9 13 14 4 8 11 6 3 7 3 1 2 4 5 6 8 9 9 8 7 4 2
Wind_Direction
346 344 345 344 345 344 342 339 335 332 327 323 320 318 315 313 311 308 305 304 300 296 291 291 292 289 283 274 268 264 256 258 260 262 264 255 253 258 260 251 243 236 240 245 241
349 348 348 347 345 343 342 341 338 332 326 322 320 319 318 317 316 311 310 306 304 303 304 301 295 291 287 282 270 264 261 261 265 265 264 258 248 247 247 246 240 234 233 233 231
350 348 345 345 344 343 342 339 335 331 329 327 325 323 322 320 315 314 311 313 314 313 310 309 307 304 300 289 279 265 261 263 259 255 258 257 242 243 245 242 239 237 232 227 223
349 347 345 343 342 341 340 337 336 333 332 331 329 327 323 321 314 314 316 313 312 316 318 319 319 322 324 323 295 277 281 272 270 265 256 255 255 243 239 239 231 231 227 227 224
347 345 343 341 338 338 337 335 335 335 334 333 331 327 326 322 321 320 318 319 322 323 321 320 323 327 331 324 308 302 301 287 281 275 274 269 257 249 239 237 231 230 230 225 221
345 344 342 342 340 341 341 339 337 337 337 335 332 332 332 330 329 330 330 328 323 323 329 322 324 324 315 314 310 305 302 294 280 280 276 275 270 260 245 234 225 226 221 226 220
345 345 345 344 341 342 342 341 339 339 339 336 335 333 333 338 337 337 335 329 326 326 330 316 311 310 308 309 304 303 301 292 290 299 286 284 272 258 262 243 242 227 222 216 217
344 345 344 343 343 343 343 343 341 340 339 338 335 334 338 341 340 338 329 330 317 321 317 313 307 301 298 299 297 295 293 294 302 310 303 296 281 274 264 251 239 226 232 209 214
345 343 343 344 344 344 343 343 343 341 341 339 336 337 351 343 337 330 330 334 328 318 314 317 312 301 296 297 301 295 287 293 303 304 307 288 285 275 267 253 235 225 234 216 210
340 338 339 339 341 344 343 343 342 340 339 338 338 347 340 341 341 341 336 330 328 324 322 320 308 303 311 322 287 294 291 287 293 306 299 284 281 275 266 251 251 228 224 218 213
334 332 334 338 339 342 342 345 340 337 337 335 346 354 341 346 342 342 342 342 339 336 332 314 313 313 324 320 305 293 284 284 299 308 297 288 289 274 268 241 232 216 211 216 206
328 327 329 334 340 342 345 342 343 337 334 340 353 350 350 345 347 351 347 351 342 338 339 338 330 333 324 322 313 292 287 280 302 314 286 291 287 280 266 224 213 210 202 213 215
330 326 330 336 340 341 344 345 342 339 338 360 349 353 348 349 348 354 356 353 348 340 341 346 345 336 334 328 333 296 282 292 297 312 292 286 285 274 224 207 224 199 196 211 209
330 333 333 336 336 341 342 344 345 340 342 5 357 350 346 354 356 351 348 351 348 338 335 342 350 347 343 346 335 321 320 309 309 311 286 302 294 135 179 191 202 188 204 211 194
330 333 335 339 342 342 346 351 346 344 22 344 348 351 353 358 358 355 351 353 348 342 344 342 336 354 3 351 336 324 319 304 305 313 318 24 164 11 174 164 182 199 194 204 192
337 340 345 345 343 347 352 352 350 12 337 340 341 346 356 360 355 358 358 356 360 359 346 351 356 1 349 354 335 341 337 313 287 310 346 1 94 38 107 124 166 176 187 204 168
341 344 345 345 350 355 357 357 10 49 335 337 341 348 357 2 360 2 3 6 18 5 355 7 6 358 355 355 5 351 354 343 2 15 302 7 59 34 75 133 161 174 184 197 186
350 352 346 349 350 355 1 6 28 341 345 340 339 347 1 4 0 1 3 12 15 11 351 349 345 360 352 351 348 6 4 14 316 342 313 2 33 12 74 111 123 157 170 183 185
357 348 351 353 357 356 3 16 2 342 337 342 344 353 2 358 357 358 359 9 6 8 5 345 320 360 359 2 6 357 357 353 313 310 21 12 43 38 92 134 144 159 170 181 201
344 350 354 356 354 357 3 9 355 347 344 344 356 353 346 351 355 356 2 351 358 355 357 338 306 352 4 16 23 24 9 346 354 0 19 69 40 18 91 149 154 150 138 165 194
318 336 344 348 351 354 1 358 351 349 347 346 345 339 346 349 347 349 353 347 343 349 352 350 323 326 4 20 13 13 17 9 335 5 347 15 46 20 86 153 157 164 160 179 198
310 326 337 344 346 348 349 349 351 347 349 343 340 344 347 351 342 346 343 343 338 338 342 350 316 315 333 52 23 16 14 10 5 338 354 38 32 20 72 134 171 171 186 196 207
302 313 321 332 339 343 343 341 345 343 344 339 332 334 335 343 342 333 337 339 334 335 338 346 332 331 1 354 346 1 6 4 352 350 4 34 12 26 85 135 134 170 179 189 196
311 320 323 333 336 338 337 338 337 338 333 335 323 323 327 336 338 324 330 337 336 330 340 332 312 288 265 300 310 333 359 5 7 7 6 52 56 43 52 128 139 151 170 192 207
302 306 317 321 326 330 331 332 332 331 331 329 321 317 318 328 331 330 333 337 339 340 336 331 301 296 302 295 308 334 349 359 20 26 43 62 67 69 64 62 82 134 184 193 197
306 307 308 313 321 326 328 328 330 330 326 323 319 315 309 321 322 325 325 333 331 328 325 331 313 316 321 288 318 312 317 342 352 44 84 76 65 71 75 78 79 78 92 159 207
301 298 308 303 315 324 325 325 321 323 326 322 318 315 308 311 318 320 316 316 308 316 327 339 336 331 286 308 309 301 315 334 331 30 67 42 98 83 80 80 79 79 78 80 96